Location: Marstown
(39.5056°N, 77.0820°W)
Time: 12:16:55
(UTC-04:00)

Mayak - Visible Passes

Search period start: 18 August 2017 00:00
Search period end: 28 August 2017 00:00
Orbit: 585 x 607 km, 97.6° (Epoch: 17 August)

Date Brightness Start Highest point End Pass type
(mag) Time Alt. Az. Time Alt. Az. Time Alt. Az.
18 Aug 1.9 00:42:22 10° NNE 00:42:30 11° NNE 00:42:30 11° NNE visible
19 Aug 1.9 00:52:06 10° NNE 00:52:18 11° NNE 00:52:18 11° NNE visible
20 Aug 1.9 01:01:53 10° N 01:02:05 11° N 01:02:05 11° N visible
21 Aug 2.0 01:11:42 10° N 01:11:53 11° N 01:11:53 11° N visible
22 Aug 2.0 01:21:34 10° N 01:21:40 11° N 01:21:40 11° N visible
